Location: DARK SKY Beskydy - Park tmavé oblohy, www.darkskybeskydy.cz
(49.4926°N, 18.5016°E)
Time: 12:31:05
(UTC+02:00)

Tiros 1 - Visible Passes

Search period start: 20 June 2025 00:00
Search period end: 30 June 2025 00:00
Orbit: 620 x 651 km, 48.4° (Epoch: 19 June)

Date Brightness Start Highest point End Pass type
(mag) Time Alt. Az. Time Alt. Az. Time Alt. Az.
24 Jun 9.3 03:48:40 10° S 03:51:17 15° SE 03:53:55 10° ESE visible
26 Jun 9.3 02:51:58 10° SSE 02:53:58 13° SE 02:55:57 10° ESE visible
27 Jun 8.7 03:12:35 12° S 03:15:44 23° SE 03:19:21 10° E visible
28 Jun 9.4 01:56:08 10° SE 01:56:39 10° SE 01:57:25 10° SE visible
28 Jun 8.0 03:33:32 11° SW 03:37:38 36° SSE 03:41:54 10° E visible
29 Jun 8.7 02:17:03 18° SSE 02:18:21 20° SE 02:21:43 10° E visible
29 Jun 7.4 03:55:04 10° WSW 03:59:39 54° SSE 04:04:13 10° E visible
